Flag for Canada Weather past 2 weeks in Winnipeg, Manitoba, Canada

Now
21 °F

Cold.


Feels Like: 13 °F
Forecast: -3 / 18 °F
Wind: 7 mph from West

Location: Winnipeg The Forks

Current Time: Mar 1, 2015 at 5:40:57 PM

Latest Report: Mar 1, 2015 at 5:00 PM


Visibility: N/A

Pressure: 30.25 "Hg

Humidity: 56%

Dew point: 8 °F

Location of WinnipegLocation

Historic Weather in Winnipeg — Graph

°F

Winnipeg temperature yesterday

Maximum temperature yesterday: 17 °F (at 5:00 PM)
Minimum temperature yesterday: 2 °F (at 7:00 AM)
Average temperature yesterday: 10 °F

Past Weeks' High & Low Weather Summary

 TemperatureHumidityPressure
High27 °F (Feb 23, 10:00 PM)91% (Feb 24, 12:00 AM)30.83 "Hg (Feb 24, 12:00 AM)
Low-21 °F (Feb 22, 8:00 AM)46% (Feb 22, 5:00 PM)29.67 "Hg (Feb 23, 11:00 PM)
Average0 °F67%30.28 "Hg
* Reported Feb 14 4:00 PM — Mar 1 4:00 PM, Winnipeg, Weather by CustomWeather, © 2015

Note: Actual official high and low records may vary slightly from our data, if they occured in-between our weather recording intervals... More about our weather records

Advertising

Winnipeg weather history for previous 24 hours

 ConditionsComfort  
Time TempWeatherWind HumidityBarometerVisibility
4:00 PM
Sun, Mar 1
21 °FCold.6 mph59%30.25 "HgN/A
3:00 PM20 °FCold.5 mph61%30.24 "HgN/A
2:00 PM17 °FCold.5 mph60%30.24 "HgN/A
1:00 PM15 °FCold.5 mph67%30.24 "HgN/A
12:00 PM13 °FCold.3 mph72%30.24 "HgN/A
11:00 AM11 °FCold.5 mph75%30.22 "HgN/A
10:00 AM8 °FFrigid.5 mph78%30.20 "HgN/A
9:00 AM8 °FFrigid.3 mph78%30.18 "HgN/A
8:00 AM4 °FFrigid.3 mph77%30.16 "HgN/A
7:00 AM4 °FFrigid.3 mph75%30.14 "HgN/A
6:00 AM4 °FFrigid.5 mph75%30.13 "HgN/A
5:00 AM2 °FFrigid.3 mph79%30.12 "HgN/A
4:00 AM2 °FFrigid.3 mph77%30.12 "HgN/A
3:00 AM2 °FFrigid.3 mph76%30.12 "HgN/A
2:00 AM4 °FFrigid.5 mph76%30.12 "HgN/A
1:00 AM3 °FFrigid.5 mph75%30.11 "HgN/A
12:00 AM5 °FFrigid.5 mph72%30.12 "HgN/A
11:00 PM
Sat, Feb 28
6 °FFrigid.5 mph69%30.12 "HgN/A
10:00 PM8 °FFrigid.3 mph67%30.12 "HgN/A
9:00 PM12 °FCold.7 mph64%30.12 "HgN/A
8:00 PM14 °FCold.5 mph78%30.12 "HgN/A
7:00 PM17 °FCold.5 mph72%30.12 "HgN/A
6:00 PM16 °FCold.6 mph73%30.12 "HgN/A
5:00 PM17 °FCold.8 mph70%30.12 "HgN/A
Weather by CustomWeather, © 2015

See weather overviewHow to use our weather pages